www.pogodaiklimat.ru

Погода и климат >> Архив погоды >> Россия >> Самарская область >> Самара


АРХИВ ПОГОДЫ в Самаре

Время (UTC), дата Ветер
(напр.,м/с)
 
Видим.   Явления Облачность Т
(С)
Тd
(С)
f
(%)
Тe
(С)
Тes
(С)
Комфортность P
(гПа)
Po
(гПа)
Тmin
(С)
Tmax
(С)
R
(мм)
R24
(мм)
S
(см)
09 12.08 СЗ 3
{10}
10 км {ливн. осадки} 10/10 600 м
[Sc diur, vesp]
+12.4 +8.9 79 +11 +11 1008.0 991.4
12 12.08 СЗ 4
{11}
10 км {ливн. осадки} 10/10 600 м
[Sc diur, vesp]
+14.5 +8.5 67 +13 +13 1008.5 992.0
15 12.08 СЗ 3
{11}
10 км 8/5 600 м
[Sc Ac trans]
+15.0 +8.1 63 +14 +14 1009.1 992.6 +15.0 0.0
18 12.08 С 2 10 км 10/10 600 м
[Sc]
+13.1 +7.7 70 +12 +12 1011.0 994.4
21 12.08 СЗ 3
{10}
10 км 10/10 600 м
[Sc]
+11.9 +6.8 71 +10 +10 1010.9 994.2
00 13.08 СЗ 4-10
{10}
10 км 8/8 600 м
[Sc]
+11.2 +6.5 73 +9 +9 1010.5 993.8
03 13.08 СЗ 3
{10}
10 км 4/4 600 м
[Sc]
+10.7 +6.2 74 +9 +10 1011.3 994.5 +10.4
06 13.08 СЗ 5-10
{14}
10 км 8/8 300 м
[Cu hum]
+13.3 +5.5 59 +11 +12 1010.9 994.3
09 13.08 СЗ 4-11
{14}
10 км 6/6 300 м
[Cu hum]
+16.4 +6.2 51 +16 +19 1010.7 994.2
12 13.08 СЗ 4-11
{13}
10 км 4/4 300 м
[]
+18.1 +7.2 49 +18 +21 1011.0 994.7
15 13.08 СЗ 1 10 км 6/6 600 м
[Sc diur, vesp]
+17.0 +8.0 55 +18 +18 1012.0 995.6 +18.6
18 13.08 СЗ 2 10 км ясно +15.5 +8.3 62 +15 +15 1013.1 996.6
21 13.08 СЗ 1 10 км ясно +14.5 +8.7 68 +15 +15 1012.8 996.2
00 14.08 СЗ 2 10 км 8/0
[Ac trans]
+14.6 +8.7 68 +14 +14 1013.1 996.5
03 14.08 СЗ 3 10 км 5/0
[Ac trans Ci fib]
+13.7 +9.5 76 +13 +13 1013.5 996.9 +13.2
06 14.08 СЗ 3 10 км 6/0
[Ac trans Ci fib]
+17.3 +10.9 66 +17 +23 1014.1 997.6
09 14.08 СЗ 2 10 км 8/0
[Ci fib]
+21.4 +10.5 50 +23 +34 комфорт 1012.8 996.6
12 14.08 СЗ 2 10 км 8/0
[Ac trans Ci]
+22.0 +10.9 49 +24 +28 комфорт 1012.7 996.6
15 14.08 СЗ 1 10 км 8/0
[Ac trans]
+21.3 +11.7 54 +23 +23 комфорт 1013.2 997.0 +23.1
18 14.08 С 1 10 км 3/0
[Ac trans]
+18.7 +10.1 57 +20 +20 1014.5 998.1
21 14.08 В 2 10 км ясно +15.7 +13.2 85 +16 +16 1014.8 998.3
00 15.08 В 2 10 км ясно +14.6 +12.5 87 +14 +14 1015.7 999.1
03 15.08 В 1 10 км 3/0
[Ci fib]
+15.8 +13.4 86 +16 +18 1016.7 1000.2 +12.9
06 15.08 В 1 10 км 6/3 300 м
[Cu hum Ac trans]
+18.9 +14.0 73 +21 +26 комфорт 1017.5 1001.1
09 15.08 З 1 10 км ясно +22.8 +12.8 53 +26 +41 жарко 1016.9 1000.7
12 15.08 З 2 10 км ясно +25.4 +12.8 46 +27 +34 жарко 1016.1 1000.1
15 15.08 ЮВ 1 10 км ясно +24.7 +12.6 47 +27 +27 жарко 1015.8 999.8 +26.8
18 15.08 В 2 10 км ясно +21.4 +13.8 62 +24 +24 комфорт 1016.5 1000.3
21 15.08 В 2 10 км ясно +19.1 +14.2 73 +21 +21 комфорт 1016.7 1000.4
00 16.08 В 2 10 км ясно +17.0 +13.8 81 +17 +17 1017.3 1000.8
03 16.08 В 2 10 км 3/0
[Ci fib]
+16.8 +13.6 81 +17 +18 1017.1 1000.7 +16.0
06 16.08 В 2 10 км 3/0
[Ac trans Ci fib]
+23.6 +14.7 57 +26 +33 жарко 1016.5 1000.4
09 16.08 ЮВ 2 10 км 8/0
[Ci fib]
+28.3 +12.9 39 +30 +41 жарко 1015.1 999.3
12 16.08 СЗ 2 10 км 10/0
[Ci fib]
+29.7 +12.5 35 +31 +36 жарко 1014.0 998.3
15 16.08 В 1 10 км 10/0
[Ci fib]
+28.7 +12.3 36 +30 +30 жарко 1013.6 997.8 +31.0
18 16.08 В 2 10 км 10/0
[Ci fib]
+25.2 +11.9 43 +27 +27 жарко 1013.9 997.9
21 16.08 В 2 10 км 10/0
[Ci fib]
+22.6 +13.0 55 +26 +26 жарко 1014.0 997.9
00 17.08 В 2 10 км 10/0
[Ac trans Ci fib]
+21.1 +13.6 62 +24 +24 комфорт 1014.4 998.2
03 17.08 В 1 10 км 10/0
[Ac trans Ci fib]
+20.9 +14.2 66 +25 +26 комфорт 1014.7 998.5 +19.7
06 17.08 В 1 10 км 10/4 600 м
[Cu med, cong Ci fib]
+25.8 +15.0 51 +29 +33 душно 1015.1 999.2
09 17.08 З 1 10 км 10/4 600 м
[Cu hum Ac trans Ci fib]
+29.5 +12.1 34 +30 +35 жарко 1015.0 999.2
12 17.08 Ю 2 10 км 10/0
[Ac trans Ci fib]
+31.8 +8.3 23 +31 +35 жарко 1014.3 998.6
15 17.08 штиль 0 10 км 10/0
[Ac trans Ci sp]
+26.9 +12.6 41 +28 +29 жарко 1014.6 998.7 +32.1
18 17.08 В 1 10 км 3/0
[Ci fib]
+25.7 +8.8 34 +26 +26 жарко 1014.5 998.5
21 17.08 В 3 10 км ясно +24.3 +10.5 42 +25 +25 комфорт 1014.5 998.4
00 18.08 В 2 10 км 10/0
[Ci fib]
+22.6 +12.0 51 +25 +25 комфорт 1015.1 999.0
03 18.08 В 3 10 км 10/0
[Ci sp]
+21.1 +13.2 61 +23 +24 комфорт 1015.2 999.0 +21.1
06 18.08 В 2 10 км 8/0
[Ci fib]
+26.2 +13.7 46 +28 +35 жарко 1015.4 999.4 +20.8
09 18.08 ЮЗ 3 10 км 8/3 300 м
[Cu hum Ac trans Ci fib]
+32.7 +4.0 16 +30 +35 жарко 1015.3 999.7
12 18.08 ЮЗ 2
{11}
10 км 10/3 600 м
[Cb calv Ac trans Ci fib]
+27.7 +7.3 28 +27 +30 жарко 1017.7 1001.8
15 18.08 ЮВ 1 10 км 10/3 600 м
[Cb calv Ac trans Ci fib]
+26.1 +10.9 39 +27 +27 жарко 1017.5 1001.5 +33.3
18 18.08 В 2 10 км 10/0
[Ci fib]
+25.4 +10.3 39 +26 +26 жарко 1017.7 1001.7
21 18.08 В 2 10 км 10/0
[Ci fib]
+24.1 +9.3 39 +25 +25 комфорт 1018.4 1002.3
00 19.08 В 4 10 км 10/0
[Ci fib]
+23.3 +8.8 40 +25 +25 комфорт 1018.6 1002.4
03 19.08 В 2 10 км 10/3 600 м
[Cb calv Ac trans Ci fib]
+22.7 +9.7 44 +24 +25 комфорт 1019.4 1003.2 +20.8
06 19.08 В 3 10 км {ливн. осадки} 4/0
[Ac trans Ci fib]
+25.8 +12.3 43 +27 +33 жарко 1019.3 1003.3

 

Местоположение метеостанции Самара (Самарская область, Россия): широта 53.25 долгота 50.22 высота над уровнем моря 139 м.

В архиве по умолчанию представлена погода в Самаре за последнюю неделю. Архивные данные за месяц целиком и за предыдущие месяцы, начиная с января 2011 года, Вы можете получить, выбрав интересующий диапазон дат из раскрывающегося списка и нажав кнопку "Ввод!".


*Определитесь, кто Вы:
робот инопланетянин человек

Внимание! Время в таблицах - всемирное. Для получения местного времени необходимо прибавить поправку, которая равна 4 ч.

Смотрите также архив погоды в соседних городах и на ближайших метеорологических станциях:

Погода в Самаре АМС (Самарская область, Россия) (7 км)
Погода в Самаре-Центр (Самарская область, Россия) (8 км)
Погода в Курумоче (Самарская область, Россия) (28 км)
Погода в Аглосе (Самарская область, Россия) (32 км)
Погода в Чапаевске (Самарская область, Россия) (43 км)
Погода в Красносамарском (Самарская область, Россия) (46 км)
Погода в Тольятти (дамба) (Самарская область, Россия) (55 км)
Погода в Безенчуке (Самарская область, Россия) (61 км)
Погода в Тольятти (Самарская область, Россия) (69 км)
Погода в Богатом (Самарская область, Россия) (73 км)

Пояснения к столбцам:

Ветер - указаны скорость ветра в м/с - средняя за 10 мин, порывы в срок и между сроками (в фигурных скобках) и направление, откуда дует ветер: С - северный, СВ - северо-восточный, В - восточный, ЮВ - юго-восточный, Ю - южный, ЮЗ - юго-западный, З - западный, СЗ - северо-западный.
Видимость - горизонтальная дальность видимости в метрах или километрах. При видимости от 1 до 10 км при отсутствии осадков обычно наблюдается дымка, при ухудшении видимости до 1 км и менее - туман. В сухую погоду видимость может ухудшаться дымом, пылью или мглою.
Явления - указаны атмосферные явления, наблюдавшиеся в срок или в последний час перед сроком; фигурными скобками обозначены явления, наблюдавшиеся между сроками (за 1-3 часа до срока); квадратными скобками обозначены град или гололедные отложения с указанием их диаметра в мм.
Облачность - указаны через наклонную черту общая и нижняя облачность в баллах и высота нижней границы облаков в метрах; квадратными скобками обозначены формы облаков: Ci - перистые, Cs - перисто-слоистые, Cc - перисто-кучевые, Ac - высококучевые, As - высокослоистые, Sc - слоисто-кучевые, Ns - слоисто-дождевые, Cu - кучевые, Cb - кучево-дождевые. Подробнее классификацию облаков см. в Атласе облаков (PDF).
T - Температура воздуха - температура, измеренная на высоте 2 м над землей.
Td - Температура точки росы - температура, при понижении до которой содержащийся в воздухе водяной пар достигнет насыщения.
f - Относительная влажность воздуха - влажноcть воздуха, измеренная на высоте 2 м над землей.
Te - Эффективная температура - температура, которую ощущает одетый по сезону человек в тени. Характеристика душности погоды. При расчете учитывается влияние влажности воздуха и скорости ветра на теплоощущения человека.
Tes - Эффективная температура на солнце - температура, которую ощущает человек, с поправкой на солнечный нагрев. Характеристика знойности погоды. Зависит от высоты солнца над горизонтом, облачности и скорости ветра. Ночью, в пасмурную погоду, а также при ветре 12 м/с и более поправка равна нулю.
P - Атмосферное давление - приведенное к уровню моря атмосферное давление.
Po - Атмосферное давление - измеренное на уровне метеостанции атмосферное давление.
Tmin - Минимальная температура - минимум температуры воздуха на высоте 2 м над землей.
Tmax - Максимальная температура - максимум температуры воздуха на высоте 2 м над землей.
R - Количество осадков - Количество выпавших осадков за период времени, мм. При наведении курсора мыши на число - период времени, за который выпало указанное количество осадков.
R24 - Количество осадков - Количество выпавших осадков за 24 часа, мм.
S - Снежный покров - Высота снежного покрова, см. При наведении курсора мыши на число - состояние снежного покрова и степень покрытия местности в баллах.